Back to catalog

ISIS 2 DEB

AlivePO
NORAD 27658·DEBRIS·🇨🇦 Canada

Launched Apr 1, 1971 from Vandenberg Space Force Base

Loading…

Next Passes (next 24 hours)

TLE

FreshSource: Space-Track

Epoch: Sep 14, 2026, 14:06 UTC

1 27658U 71024D   26257.58794488  .00000457  00000-0  20160-2 0  9994
2 27658  88.1588 291.3304 0053575  66.0946  91.1849 12.77570959101574

Track ISIS 2 DEB in real time with AllMySat

Download on the App Store